Flag for Netherlands Weather past 2 weeks in The Hague, Netherlands

Now
39 °F

Clear.


Feels Like: 35 °F
Forecast: 43 / 47 °F
Wind: 6 mph from West

Location: Rotterdam Zestienhoven Airport

Current Time: Mar 5, 2015 at 9:28:56 AM

Latest Report: Mar 5, 2015 at 8:55 AM


Visibility: N/A

Pressure: 30.66 "Hg

Humidity: 93%

Dew point: 37 °F

Location of The HagueLocation

Historic Weather in The Hague — Graph

°F

The Hague temperature yesterday

Maximum temperature yesterday: 45 °F (at 1:25 PM)
Minimum temperature yesterday: 39 °F (at 5:25 AM)
Average temperature yesterday: 42 °F

Past Weeks' High & Low Weather Summary

 TemperatureHumidityPressure
High50 °F (Mar 1, 11:25 AM)100% (Feb 18, 8:55 AM)30.72 "Hg (Feb 18, 8:55 AM)
Low30 °F (Feb 22, 2:25 AM)53% (Feb 18, 2:25 PM)29.27 "Hg (Feb 23, 3:25 AM)
Average42 °F82%29.86 "Hg
* Reported Feb 18 8:25 AM — Mar 5 8:25 AM, The Hague, Weather by CustomWeather, © 2015

Note: Actual official high and low records may vary slightly from our data, if they occured in-between our weather recording intervals... More about our weather records

Advertising

The Hague weather history for previous 24 hours

 ConditionsComfort  
Time TempWeatherWind HumidityBarometerVisibility
8:25 AM
Thu, Mar 5
37 °FClear.7 mph93%30.66 "HgN/A
7:55 AM36 °FClear.6 mph93%30.66 "HgN/A
7:25 AM36 °FClear.5 mph93%30.63 "HgN/A
6:55 AM34 °FClear.5 mph100%30.63 "HgN/A
6:25 AM34 °FClear.3 mph100%30.63 "Hg4 mi
5:55 AM34 °FFog.3 mph93%30.63 "Hg2 mi
5:25 AM32 °FChilly.2 mph100%30.63 "Hg4 mi
4:25 AM36 °FChilly.5 mph93%30.60 "Hg6 mi
3:55 AM36 °FClear.5 mph93%30.60 "HgN/A
2:55 AM36 °FChilly.6 mph93%30.60 "HgN/A
2:25 AM36 °FClear.6 mph93%30.60 "HgN/A
1:55 AM37 °FChilly.6 mph93%30.57 "HgN/A
1:25 AM39 °FChilly.7 mph87%30.57 "HgN/A
12:55 AM39 °FPassing clouds.9 mph93%30.57 "HgN/A
12:25 AM41 °FClear.9 mph87%30.54 "HgN/A
11:55 PM
Wed, Mar 4
41 °FPassing clouds.9 mph87%30.54 "HgN/A
11:25 PM43 °FPassing clouds.12 mph87%30.54 "HgN/A
10:25 PM43 °FOvercast.15 mph87%30.51 "HgN/A
9:55 PM43 °FPartly cloudy.14 mph81%30.48 "HgN/A
9:25 PM43 °FPartly cloudy.14 mph81%30.48 "HgN/A
8:55 PM43 °FPartly cloudy.14 mph81%30.45 "HgN/A
8:25 PM43 °FPassing clouds.13 mph81%30.45 "HgN/A
7:55 PM41 °FLight rain. Partly cloudy.20 mph87%30.45 "HgN/A
7:25 PM43 °FPartly cloudy.18 mph81%30.42 "HgN/A
6:55 PM43 °FPassing clouds.14 mph81%30.42 "HgN/A
6:25 PM43 °FBroken clouds.16 mph76%30.39 "HgN/A
5:55 PM43 °FLight rain. Partly sunny.17 mph81%30.36 "HgN/A
5:25 PM45 °FPassing clouds.20 mph71%30.36 "HgN/A
4:55 PM45 °FScattered clouds.20 mph71%30.33 "HgN/A
4:25 PM45 °FBroken clouds.18 mph76%30.33 "HgN/A
3:55 PM45 °FPartly sunny.18 mph76%30.33 "HgN/A
3:25 PM45 °FBroken clouds.18 mph76%30.30 "HgN/A
2:55 PM45 °FBroken clouds.17 mph71%30.30 "HgN/A
2:25 PM45 °FBroken clouds.20 mph71%30.30 "HgN/A
1:55 PM45 °FCloudy.20 mph71%30.27 "HgN/A
1:25 PM45 °FBroken clouds.17 mph76%30.27 "HgN/A
12:55 PM43 °FCloudy.18 mph76%30.27 "HgN/A
12:25 PM43 °FMostly cloudy.20 mph76%30.24 "HgN/A
11:55 AM43 °FMostly cloudy.18 mph76%30.24 "HgN/A
11:25 AM43 °FBroken clouds.18 mph76%30.21 "HgN/A
10:55 AM43 °FMore clouds than sun.18 mph76%30.21 "HgN/A
10:25 AM43 °FMore clouds than sun.17 mph76%30.21 "HgN/A
9:55 AM43 °FBroken clouds.18 mph76%30.21 "HgN/A
9:25 AM43 °FPartly sunny.17 mph76%30.18 "HgN/A
Weather by CustomWeather, © 2015

See weather overviewHow to use our weather pages